This is the latest recevied weather packets stored in our database for station/object W0SS-13. If no packets are shown the sender has not sent any weather packets the latest 10 day(s).
| Time | Temp. | Humidity | Pressure | Rain* | Wind** | Luminosity | Snow |
|---|---|---|---|---|---|---|---|
| 1777511200 | 13.89° C | 69% | 1019.2 hPa | 0 mm | - | 5 W/m² | - |
| 1777510896 | 14.44° C | 66% | 1019.3 hPa | 0 mm | - | 9 W/m² | - |
| 1777510593 | 15° C | 63% | 1019.3 hPa | 0 mm | - | 14 W/m² | - |
| 1777510289 | 15.56° C | 60% | 1019.3 hPa | 0 mm | - | 17 W/m² | - |
| 1777509986 | 15° C | 57% | 1019.1 hPa | 0 mm | - | 23 W/m² | - |
| 1777509682 | 15° C | 58% | 1019.2 hPa | 0 mm | - | 29 W/m² | - |
| 1777509379 | 15° C | 58% | 1019.2 hPa | 0 mm | - | 36 W/m² | - |
| 1777509076 | 14.44° C | 59% | 1019.2 hPa | 0 mm | - | 39 W/m² | - |
| 1777508773 | 15° C | 57% | 1019 hPa | 0 mm | - | 43 W/m² | - |
| 1777508470 | 15° C | 58% | 1019.2 hPa | 0 mm | - | 52 W/m² | - |
| 1777508167 | 15° C | 58% | 1018.9 hPa | 0 mm | - | 55 W/m² | - |
| 1777507863 | 14.44° C | 58% | 1019 hPa | 0 mm | - | 58 W/m² | - |
| 1777507561 | 14.44° C | 58% | 1019.1 hPa | 0 mm | - | 59 W/m² | - |
| 1777507257 | 14.44° C | 57% | 1019 hPa | 0 mm | - | 59 W/m² | - |
| 1777506955 | 14.44° C | 57% | 1019 hPa | 0 mm | - | 58 W/m² | - |
| 1777506652 | 14.44° C | 58% | 1019.1 hPa | 0 mm | - | 64 W/m² | - |
| 1777506348 | 14.44° C | 58% | 1018.9 hPa | 0 mm | - | 63 W/m² | - |
| 1777506044 | 15° C | 55% | 1019 hPa | 0 mm | - | 67 W/m² | - |
| 1777505739 | 15° C | 56% | 1019 hPa | 0 mm | - | 73 W/m² | - |
| 1777505437 | 15° C | 57% | 1018.9 hPa | 0 mm | - | 72 W/m² | - |
| 1777505134 | 15° C | 57% | 1019.1 hPa | 0 mm | - | 87 W/m² | - |
| 1777504831 | 15° C | 55% | 1018.7 hPa | 0 mm | - | 111 W/m² | - |
| 1777504528 | 15° C | 57% | 1019.1 hPa | 0 mm | - | 114 W/m² | - |
| 1777504223 | 15° C | 55% | 1019 hPa | 0 mm | - | 110 W/m² | - |
| 1777503919 | 15.56° C | 53% | 1019.1 hPa | 0 mm | - | 114 W/m² | - |
* Rain latest hour (hover to see other rain measurements)
** Current wind speed in m/s (hover to see current wind gust speed)